Location: Claflin County Park
(44.8478°N, 87.5507°W)
Time: 23:20:33
(UTC+00:00)

Aureole 1 Rocket - Pass Details

Date: 10 December 2025
Orbit: 372 x 1167 km, 73.9° (Epoch: 19 January)

Event Time Altitude Azimuth Distance (km) Brightness Sun altitude
Exits shadow 09:59:31 73° 47° (NE) 1,205 4.4 -34.1°
Maximum altitude 09:59:49 74° 67° (ENE) 1,201 4.4 -34.0°
Drops below altitude 10° 10:07:17 10° 153° (SSE) 3,069 6.9 -32.7°
Sets 10:09:59 0° 155° (SSE) 3,998 7.5 -32.2°
